AO-07 1 07530U 74089B 26255.03416389 -.00000034 00000-0 79536-4 0 9999 2 07530 101.9921 269.1889 0012062 327.0247 55.9443 12.53699572371403 AO-27 1 22825U 93061C 26255.19429984 .00000055 00000-0 38018-4 0 9998 2 22825 98.6801 322.5414 0008020 197.7303 162.3601 14.30960661719444 FO-29 1 24278U 96046B 26255.10831711 -.00000022 00000-0 15332-4 0 9993 2 24278 98.5171 92.0641 0349073 230.7620 126.2059 13.53277864484922 ISS 1 25544U 98067A 26255.20788499 .00004954 00000-0 97729-4 0 9997 2 25544 51.6305 229.4056 0004953 131.3152 228.8264 15.49086570585248 NO-44 1 26931U 01043C 26254.76675993 .00000055 00000-0 51594-4 0 9998 2 26931 67.0525 20.3307 0005728 272.1602 87.8844 14.31982736302845 SO-50 1 27607U 02058C 26255.07078318 .00000680 00000-0 97802-4 0 9995 2 27607 64.5512 220.1340 0072159 246.5319 112.8191 14.83206442277343 AO-73 1 39444U 13066AE 26254.93088510 .00005617 00000-0 34015-3 0 9998 2 39444 97.8376 228.3003 0033468 268.4236 91.3159 15.10560256692757 IO-86 1 40931U 15052B 25151.18580782 .00001310 00000-0 87238-4 0 9990 2 40931 6.0001 24.1284 0012872 339.0660 20.8941 14.78806187523042 CAS-2T 1 41847U 16066G 26255.22373585 .00000718 00000-0 11036-3 0 9998 2 41847 98.3758 329.9587 0340407 225.2887 132.0121 14.44836311517368 AO-91 1 43017U 17073E 26255.09503257 .00006547 00000-0 27826-3 0 9994 2 43017 97.4563 120.5351 0148267 28.8403 332.0922 15.13867827478537 PO-101 1 43678U 18084H 26255.32194985 .00001030 00000-0 86425-4 0 9993 2 43678 98.1177 95.3660 0011349 236.3952 123.6188 15.00719427429280 QO-100 1 43700U 18090A 26255.15680110 .00000129 00000-0 00000-0 0 9996 2 43700 0.0157 132.9156 0002558 71.9309 228.5636 1.00273689 28542 JO-97 1 43803U 18099AX 26255.12481585 .00012716 00000-0 36226-3 0 9998 2 43803 97.4039 318.3816 0004245 332.5372 27.5647 15.36219969426961 RS-44 1 44909U 19096E 26255.09694762 .00000020 00000-0 41209-4 0 9996 2 44909 82.5176 281.9576 0216494 301.3360 56.6711 12.79749307313469 CSS 1 48274U 21035A 26255.15172565 .00017671 00000-0 21733-3 0 9999 2 48274 41.4683 154.0266 0002631 272.9242 87.1296 15.59839597306741 HO-113 1 50466U 21131B 26255.31240537 .00000318 00000-0 11184-3 0 9994 2 50466 98.4980 347.2283 0003958 179.7978 180.3213 14.41423031247669 IO-117 1 53106U 22080B 25167.32760529 -.00000003 00000-0 00000-0 0 9996 2 53106 70.1560 65.9804 0008358 24.6429 335.4629 6.42557409 68669 UmKA-1 1 57172U 23091G 26255.31434203 .00004195 00000-0 18839-3 0 9998 2 57172 97.4963 313.6871 0012824 168.1744 191.9796 15.21651658177253 Monitor-3 1 57180U 23091Q 26255.26074086 .00007341 00000-0 26012-3 0 9998 2 57180 97.5000 319.4013 0012093 146.3105 213.8906 15.29344807177591 Monitor-4 1 57182U 23091S 26255.30018768 .00007302 00000-0 25802-3 0 9993 2 57182 97.4994 319.4171 0012085 146.4318 213.7690 15.29437559177605 VIZARD-meteo 1 57189U 23091Z 26255.23960152 .00012816 00000-0 33863-3 0 9997 2 57189 97.5016 326.5934 0008101 116.2076 244.0003 15.38540074178067 SONATE-2 1 59112U 24043Q 26254.94141097 .00045546 00000-0 45294-3 0 9996 2 59112 97.5613 51.1607 0005267 236.3652 123.7105 15.65593639141432 MO-122 1 60209U 24125G 26255.12268243 .00082567 00000-0 55548-3 0 9997 2 60209 97.2113 115.2160 0005637 233.1334 126.9415 15.74903449123198 GRBBeta 1 60237U 24128C 26255.14709039 .00001946 00000-0 14212-3 0 9991 2 60237 61.9882 271.0415 0027965 153.7625 206.4892 15.07159723119374 ArcticSat-1 1 61762U 24199AD 26165.34303744 .14484756 25559-5 25151-3 0 9992 2 61762 97.2729 49.6147 0010303 244.1546 115.8695 16.47295417137679 AO-123 1 61781U 24199AY 26255.25169970 .00005902 00000-0 16588-3 0 9994 2 61781 97.2850 123.1433 0013447 4.1365 355.9988 15.36809081147292 LASARsat 1 62391U 24247Q 26255.03457442 .00034352 00000-0 56378-3 0 9998 2 62391 44.9719 132.2111 0008734 184.2264 175.8556 15.51841192 96781 CroCube 1 62394U 24247T 26254.06680705 .00040936 00000-0 60575-3 0 9992 2 62394 44.9695 133.3082 0009251 188.0193 172.0553 15.54622235 96687 TEVEL2-4 1 63213U 25052D 26255.14951009 .00014383 00000-0 39356-3 0 9996 2 63213 97.3770 151.8048 0003933 124.5110 235.6506 15.37448770 83463 TEVEL2-5 1 63214U 25052E 26254.98583850 .00015550 00000-0 42837-3 0 9998 2 63214 97.3768 151.5610 0003822 125.8478 234.3122 15.37221653 83437 TEVEL2-6 1 63215U 25052F 26254.67462695 .00015932 00000-0 43938-3 0 9995 2 63215 97.3769 151.2330 0003707 126.4618 233.6969 15.37182525 83389 TEVEL2-1 1 63217U 25052H 26254.67147977 .00015466 00000-0 43546-3 0 9997 2 63217 97.3749 150.7447 0003533 138.3296 221.8218 15.36542255 83366 TEVEL2-3 1 63218U 25052J 26254.66240371 .00015543 00000-0 43659-3 0 9990 2 63218 97.3752 150.7708 0003260 134.6279 225.5231 15.36618213 83362 TEVEL2-2 1 63219U 25052K 26255.12698359 .00015625 00000-0 43954-3 0 9995 2 63219 97.3748 151.2053 0003481 137.3458 222.8057 15.36569329 83438 TEVEL2-9 1 63237U 25052AD 26255.15767609 .00012169 00000-0 36784-3 0 9996 2 63237 97.3805 150.4081 0005847 170.5731 189.5622 15.34354133 83356 TEVEL2-7 1 63238U 25052AE 26255.15190597 .00011684 00000-0 35737-3 0 9991 2 63238 97.3805 150.2780 0005811 172.2852 187.8481 15.33991759 83348 TEVEL2-8 1 63239U 25052AF 26255.16089206 .00011522 00000-0 35256-3 0 9994 2 63239 97.3813 150.2614 0005802 172.1368 187.9967 15.33981526 83346 SO-125 1 63492U 25052BN 26141.26653985 .06534464 24594-5 20838-2 0 9990 2 63492 97.3646 46.2798 0012126 212.7126 147.3417 16.26141574 66567 GALAPAGOS-UTE-SWSU 1 67279U 25313AH 26255.11158837 .00004669 00000-0 19616-3 0 9990 2 67279 97.3859 328.3812 0015096 62.2458 298.0308 15.23820034 39188 Lobachevsky 1 67284U 25313AN 26255.13811704 .00003580 00000-0 15225-3 0 9990 2 67284 97.3857 328.4735 0011779 59.2263 301.0133 15.23611181 39194 SAKHACUBE-CHOLBON 1 67290U 25313AU 26255.13273108 .00006542 00000-0 25475-3 0 9996 2 67290 97.3869 329.1338 0010058 55.8883 304.3309 15.26278635 39232 QMR-KWT-2 1 67291U 25313AV 26255.15360620 .00011289 00000-0 41111-3 0 9994 2 67291 97.3867 329.5528 0009337 54.0288 306.1816 15.28332596 39269 KNACKSAT-2 1 67683U 98067XZ 26255.31192122 .00056149 00000-0 48789-3 0 9995 2 67683 51.6258 213.5681 0007959 152.6345 207.5073 15.68476422 33916 MARINA 1 69920U 26156BD 26254.66792044 .00001782 00000-0 18056-3 0 9994 2 69920 97.7446 154.0320 0006137 302.2770 57.7854 14.92152354 9896 KOSTKA 1 69935U 26156BU 26255.18054276 .00001666 00000-0 16684-3 0 9992 2 69935 97.7405 154.5542 0008507 297.5913 62.4442 14.92706210 9977 TEN-KOH2 1 88780U 25241B 26071.31019830 .00010367 00000+0 45580-3 0 9997 2 88780 51.6301 60.3795 0004576 163.6979 196.4146 15.22421637 141